STARLINK-1540, 46051

Orbit data source: Space-Track

STARLINK-1540, 46051 is a payload satellite owned by SpaceX/Seattle (US) in LEO that was launched on Fri, 07 Aug 2020 UTC via an FALCON 9 launch vehicle from the Air Force Eastern Test Range (AFETR). Payload-class satellites include a variety of spacecraft equipped with specific instruments for various scientific and technological missions. These include communications satellites like Starlink; space stations such as the ISS; scientific satellites like the Hubble; Earth observation satellites from companies like Planet Labs, Umbra, and HawkEye 360; GPS; miniature CubeSats for education and research; and military/defense satellites.

Loading next visibility...
Identifier
46051, 2020-055AA
Orbit
LEO
Country
Flag of USUS
Related business
Manufacturer
SpaceX/Seattle
Mission
Operational Commercial Communications
Bus & Motor
STARLINK, Unknown motor
Mass
260 kg wet, ~248 kg dry
Launch date (UTC)
2020-08-07 (6 years ago)
Launch vehicle
FALCON 9
Launch site
Air Force Eastern Test Range (AFETR)
Object type
Payload
Rocket body
Debris
Shape & HBR
Box + 1 Pan, 10.1 m
Radar Cross Section
13.562 m², Large (>1 m²)

Expand to show TLE details & history
Last TLE update: 3 days ago

TLE from 3 days ago
0 STARLINK-1540
1 46051U 20055AA  26170.93184478  .00001657  00000-0  65134-4 0  9990
2 46051  53.1597 358.5635 0001035  72.7138 287.3977 15.31708805324741
Epoch: 2026-06-19T22:21Z
TLE epoch observation values (Epoch: 2026-06-19T22:21:51.388Z)
Latitude
0.00004°
Longitude
114.94567°
Altitude
471.402 km
Speed
7.632 km/s
True Right ascension
23h 54m 15s
True Declination
0° 00' 00"
Sunlit
Object was in daylight at epoch
Visualization orbit readout
Latitude
Unknown
Longitude
Unknown
Altitude
Unknown
Speed
Unknown
Apparent Right ascension
Unknown
Apparent Declination
Unknown
Sunlit
N/A
Visualization observer readout
Local Sidereal Time
21:44:04
Azimuth
Unknown
Elevation
Unknown
Doppler factor
Unknown
Orbital elements
Apogee altitude
471.679 km
Perigee altitude
470.262 km
Semi-major axis
6,849.107 km
Eccentricity
0.0001
Inclination
53.1597°
RAAN
358.5635°
Arg. of periapsis
72.7138°
True anomaly
287.38638°
Mean anomaly
287.3977°
Eccentric anomaly
287.39204°
Mean motion
3.82906 °/min
Orbital period
94.02 mins
BSTAR
0.000065134
Loading maneuver chart data...
Computing Atmospheric mass density...

Documentation

Showing up to 5 results
|